Year,Month,Day,Hour,Minute,Value (Times are PST for temperature in C)
2015,05,21,00,00,19.20
2015,05,21,00,01,19.20
2015,05,21,00,02,19.20
2015,05,21,00,03,19.20
2015,05,21,00,04,19.30
2015,05,21,00,05,19.30
2015,05,21,00,06,19.40
2015,05,21,00,07,19.40
2015,05,21,00,08,19.40
2015,05,21,00,09,19.40
2015,05,21,00,10,19.40
2015,05,21,00,11,19.40
2015,05,21,00,12,19.40
2015,05,21,00,13,19.40
2015,05,21,00,14,19.50
2015,05,21,00,15,19.50
2015,05,21,00,16,19.50
2015,05,21,00,17,19.50
2015,05,21,00,18,19.50
2015,05,21,00,19,19.50
2015,05,21,00,20,19.50
2015,05,21,00,21,19.50
2015,05,21,00,22,19.50
2015,05,21,00,23,19.50
2015,05,21,00,24,19.40
2015,05,21,00,25,19.40
2015,05,21,00,26,19.40
2015,05,21,00,27,19.40
2015,05,21,00,28,19.40
2015,05,21,00,29,19.30
2015,05,21,00,30,19.30
2015,05,21,00,31,19.30
2015,05,21,00,32,19.30
2015,05,21,00,33,19.30
2015,05,21,00,34,19.20
2015,05,21,00,35,19.20
2015,05,21,00,36,19.20
2015,05,21,00,37,19.20
2015,05,21,00,38,19.20
2015,05,21,00,39,19.20
2015,05,21,00,40,19.20
2015,05,21,00,41,19.20
2015,05,21,00,42,19.20
2015,05,21,00,43,19.30
2015,05,21,00,44,19.30
2015,05,21,00,45,19.30
2015,05,21,00,46,19.30
2015,05,21,00,47,19.30
2015,05,21,00,48,19.30
2015,05,21,00,49,19.40
2015,05,21,00,50,19.40
2015,05,21,00,51,19.40
2015,05,21,00,52,19.40
2015,05,21,00,53,19.40
2015,05,21,00,54,19.40
2015,05,21,00,55,19.40
2015,05,21,00,56,19.50
2015,05,21,00,57,19.50
2015,05,21,00,58,19.60
2015,05,21,00,59,19.60
2015,05,21,01,00,19.60
2015,05,21,01,01,19.60
2015,05,21,01,02,19.60
2015,05,21,01,03,19.60
2015,05,21,01,04,19.60
2015,05,21,01,05,19.60
2015,05,21,01,06,19.60
2015,05,21,01,07,19.50
2015,05,21,01,08,19.40
2015,05,21,01,09,19.40
2015,05,21,01,10,19.30
2015,05,21,01,11,19.30
2015,05,21,01,12,19.20
2015,05,21,01,13,19.20
2015,05,21,01,14,19.10
2015,05,21,01,15,19.00
2015,05,21,01,16,19.00
2015,05,21,01,17,18.90
2015,05,21,01,18,18.90
2015,05,21,01,19,18.80
2015,05,21,01,20,18.80
2015,05,21,01,21,18.80
2015,05,21,01,22,18.70
2015,05,21,01,23,18.70
2015,05,21,01,24,18.60
2015,05,21,01,25,18.60
2015,05,21,01,26,18.50
2015,05,21,01,27,18.50
2015,05,21,01,28,18.50
2015,05,21,01,29,18.50
2015,05,21,01,30,18.50
2015,05,21,01,31,18.50
2015,05,21,01,32,18.50
2015,05,21,01,33,18.60
2015,05,21,01,34,18.60
2015,05,21,01,35,18.60
2015,05,21,01,36,18.70
2015,05,21,01,37,18.70
2015,05,21,01,38,18.70
2015,05,21,01,39,18.70
2015,05,21,01,40,18.70
2015,05,21,01,41,18.70
2015,05,21,01,42,18.80
2015,05,21,01,43,18.80
2015,05,21,01,44,18.80
2015,05,21,01,45,18.80
2015,05,21,01,46,18.80
2015,05,21,01,47,18.80
2015,05,21,01,48,18.80
2015,05,21,01,49,18.80
2015,05,21,01,50,18.80
2015,05,21,01,51,18.80
2015,05,21,01,52,18.80
2015,05,21,01,53,18.80
2015,05,21,01,54,18.80
2015,05,21,01,55,18.80
2015,05,21,01,56,18.80
2015,05,21,01,57,18.70
2015,05,21,01,58,18.70
2015,05,21,01,59,18.70
2015,05,21,02,00,18.60
2015,05,21,02,01,18.60
2015,05,21,02,02,18.60
2015,05,21,02,03,18.50
2015,05,21,02,04,18.50
2015,05,21,02,05,18.40
2015,05,21,02,06,18.40
2015,05,21,02,07,18.30
2015,05,21,02,08,18.30
2015,05,21,02,09,18.30
2015,05,21,02,10,18.30
2015,05,21,02,11,18.20
2015,05,21,02,12,18.20
2015,05,21,02,13,18.20
2015,05,21,02,14,18.10
2015,05,21,02,15,18.10
2015,05,21,02,16,18.10
2015,05,21,02,17,18.10
2015,05,21,02,18,18.10
2015,05,21,02,19,18.10
2015,05,21,02,20,18.10
2015,05,21,02,21,18.10
2015,05,21,02,22,18.10
2015,05,21,02,23,18.10
2015,05,21,02,24,18.10
2015,05,21,02,25,18.10
2015,05,21,02,26,18.10
2015,05,21,02,27,18.10
2015,05,21,02,28,18.00
2015,05,21,02,29,18.00
2015,05,21,02,30,18.00
2015,05,21,02,31,17.90
2015,05,21,02,32,17.90
2015,05,21,02,33,17.80
2015,05,21,02,34,17.80
2015,05,21,02,35,17.80
2015,05,21,02,36,17.70
2015,05,21,02,37,17.70
2015,05,21,02,38,17.60
2015,05,21,02,39,17.60
2015,05,21,02,40,17.50
2015,05,21,02,41,17.50
2015,05,21,02,42,17.40
2015,05,21,02,43,17.30
2015,05,21,02,44,17.30
2015,05,21,02,45,17.30
2015,05,21,02,46,17.20
2015,05,21,02,47,17.10
2015,05,21,02,48,17.10
2015,05,21,02,49,17.00
2015,05,21,02,50,16.90
2015,05,21,02,51,16.90
2015,05,21,02,52,16.80
2015,05,21,02,53,16.80
2015,05,21,02,54,16.70
2015,05,21,02,55,16.70
2015,05,21,02,56,16.60
2015,05,21,02,57,16.60
2015,05,21,02,58,16.50
2015,05,21,02,59,16.40
2015,05,21,03,00,16.40
2015,05,21,03,01,16.30
2015,05,21,03,02,16.30
2015,05,21,03,03,16.20
2015,05,21,03,04,16.10
2015,05,21,03,05,16.10
2015,05,21,03,06,16.00
2015,05,21,03,07,16.00
2015,05,21,03,08,15.90
2015,05,21,03,09,15.90
2015,05,21,03,10,15.80
2015,05,21,03,11,15.80
2015,05,21,03,12,15.80
2015,05,21,03,13,15.80
2015,05,21,03,14,15.70
2015,05,21,03,15,15.70
2015,05,21,03,16,15.70
2015,05,21,03,17,15.60
2015,05,21,03,18,15.60
2015,05,21,03,19,15.60
2015,05,21,03,20,15.60
2015,05,21,03,21,15.60
2015,05,21,03,22,15.60
2015,05,21,03,23,15.60
2015,05,21,03,24,15.60
2015,05,21,03,25,15.60
2015,05,21,03,26,15.60
2015,05,21,03,27,15.50
2015,05,21,03,28,15.50
2015,05,21,03,29,15.50
2015,05,21,03,30,15.50
2015,05,21,03,31,15.50
2015,05,21,03,32,15.40
2015,05,21,03,33,15.40
2015,05,21,03,34,15.40
2015,05,21,03,35,15.40
2015,05,21,03,36,15.40
2015,05,21,03,37,15.40
2015,05,21,03,38,15.40
2015,05,21,03,39,15.40
2015,05,21,03,40,15.40
2015,05,21,03,41,15.40
2015,05,21,03,42,15.40
2015,05,21,03,43,15.40
2015,05,21,03,44,15.40
2015,05,21,03,45,15.40
2015,05,21,03,46,15.40
2015,05,21,03,47,15.40
2015,05,21,03,48,15.40
2015,05,21,03,49,15.40
2015,05,21,03,50,15.40
2015,05,21,03,51,15.40
2015,05,21,03,52,15.40
2015,05,21,03,53,15.40
2015,05,21,03,54,15.40
2015,05,21,03,55,15.40
2015,05,21,03,56,15.40
2015,05,21,03,57,15.40
2015,05,21,03,58,15.40
2015,05,21,03,59,15.40
2015,05,21,04,00,15.40
2015,05,21,04,01,15.40
2015,05,21,04,02,15.40
2015,05,21,04,03,15.50
2015,05,21,04,04,15.50
2015,05,21,04,05,15.50
2015,05,21,04,06,15.60
2015,05,21,04,07,15.60
2015,05,21,04,08,15.60
2015,05,21,04,09,15.60
2015,05,21,04,10,15.70
2015,05,21,04,11,15.70
2015,05,21,04,12,15.70
2015,05,21,04,13,15.70
2015,05,21,04,14,15.70
2015,05,21,04,15,15.70
2015,05,21,04,16,15.80
2015,05,21,04,17,15.80
2015,05,21,04,18,15.80
2015,05,21,04,19,15.80
2015,05,21,04,20,15.80
2015,05,21,04,21,15.80
2015,05,21,04,22,15.80
2015,05,21,04,23,15.80
2015,05,21,04,24,15.80
2015,05,21,04,25,15.80
2015,05,21,04,26,15.80
2015,05,21,04,27,15.80
2015,05,21,04,28,15.80
2015,05,21,04,29,15.80
2015,05,21,04,30,15.80
2015,05,21,04,31,15.80
2015,05,21,04,32,15.80
2015,05,21,04,33,15.80
2015,05,21,04,34,15.80
2015,05,21,04,35,15.80
2015,05,21,04,36,15.80
2015,05,21,04,37,15.90
2015,05,21,04,38,15.90
2015,05,21,04,39,15.90
2015,05,21,04,40,15.90
2015,05,21,04,41,16.00
2015,05,21,04,42,16.00
2015,05,21,04,43,16.00
2015,05,21,04,44,16.00
2015,05,21,04,45,16.10
2015,05,21,04,46,16.00
2015,05,21,04,47,16.10
2015,05,21,04,48,16.10
2015,05,21,04,49,16.10
2015,05,21,04,50,16.10
2015,05,21,04,51,16.20
2015,05,21,04,52,16.20
2015,05,21,04,53,16.20
2015,05,21,04,54,16.20
2015,05,21,04,55,16.20
2015,05,21,04,56,16.30
2015,05,21,04,57,16.30
2015,05,21,04,58,16.30
2015,05,21,04,59,16.30
2015,05,21,05,00,16.30
2015,05,21,05,01,16.30
2015,05,21,05,02,16.30
2015,05,21,05,03,16.30
2015,05,21,05,04,16.20
2015,05,21,05,05,16.20
2015,05,21,05,06,16.10
2015,05,21,05,07,16.10
2015,05,21,05,08,16.00
2015,05,21,05,09,15.90
2015,05,21,05,10,15.90
2015,05,21,05,11,15.80
2015,05,21,05,12,15.70
2015,05,21,05,13,15.70
2015,05,21,05,14,15.60
2015,05,21,05,15,15.60
2015,05,21,05,16,15.50
2015,05,21,05,17,15.40
2015,05,21,05,18,15.40
2015,05,21,05,19,15.40
2015,05,21,05,20,15.30
2015,05,21,05,21,15.30
2015,05,21,05,22,15.30
2015,05,21,05,23,15.30
2015,05,21,05,24,15.30
2015,05,21,05,25,15.20
2015,05,21,05,26,15.20
2015,05,21,05,27,15.20
2015,05,21,05,28,15.20
2015,05,21,05,29,15.20
2015,05,21,05,30,15.20
2015,05,21,05,31,15.10
2015,05,21,05,32,15.10
2015,05,21,05,33,15.10
2015,05,21,05,34,15.10
2015,05,21,05,35,15.00
2015,05,21,05,36,15.00
2015,05,21,05,37,14.90
2015,05,21,05,38,14.90
2015,05,21,05,39,14.90
2015,05,21,05,40,14.80
2015,05,21,05,41,14.80
2015,05,21,05,42,14.80
2015,05,21,05,43,14.80
2015,05,21,05,44,14.70
2015,05,21,05,45,14.70
2015,05,21,05,46,14.70
2015,05,21,05,47,14.60
2015,05,21,05,48,14.60
2015,05,21,05,49,14.60
2015,05,21,05,50,14.60
2015,05,21,05,51,14.50
2015,05,21,05,52,14.50
2015,05,21,05,53,14.40
2015,05,21,05,54,14.40
2015,05,21,05,55,14.40
2015,05,21,05,56,14.40
2015,05,21,05,57,14.30
2015,05,21,05,58,14.30
2015,05,21,05,59,14.30
2015,05,21,06,00,14.30
2015,05,21,06,01,14.30
2015,05,21,06,02,14.30
2015,05,21,06,03,14.30
2015,05,21,06,04,14.20
2015,05,21,06,05,14.20
2015,05,21,06,06,14.20
2015,05,21,06,07,14.20
2015,05,21,06,08,14.20
2015,05,21,06,09,14.20
2015,05,21,06,10,14.20
2015,05,21,06,11,14.20
2015,05,21,06,12,14.20
2015,05,21,06,13,14.20
2015,05,21,06,14,14.20
2015,05,21,06,15,14.10
2015,05,21,06,16,14.10
2015,05,21,06,17,14.10
2015,05,21,06,18,14.10
2015,05,21,06,19,14.10
2015,05,21,06,20,14.10
2015,05,21,06,21,14.10
2015,05,21,06,22,14.10
2015,05,21,06,23,14.10
2015,05,21,06,24,14.10
2015,05,21,06,25,14.00
2015,05,21,06,26,14.00
2015,05,21,06,27,14.00
2015,05,21,06,28,14.00
2015,05,21,06,29,14.00
2015,05,21,06,30,14.00
2015,05,21,06,31,14.00
2015,05,21,06,32,14.00
2015,05,21,06,33,14.00
2015,05,21,06,34,13.90
2015,05,21,06,35,13.90
2015,05,21,06,36,13.90
2015,05,21,06,37,13.90
2015,05,21,06,38,13.90
2015,05,21,06,39,13.90
2015,05,21,06,40,14.00
2015,05,21,06,41,14.00
2015,05,21,06,42,14.00
2015,05,21,06,43,14.00
2015,05,21,06,44,14.00
2015,05,21,06,45,14.10
2015,05,21,06,46,14.10
2015,05,21,06,47,14.10
2015,05,21,06,48,14.20
2015,05,21,06,49,14.30
2015,05,21,06,50,14.40
2015,05,21,06,51,14.40
2015,05,21,06,52,14.50
2015,05,21,06,53,14.60
2015,05,21,06,54,14.60
2015,05,21,06,55,14.60
2015,05,21,06,56,14.70
2015,05,21,06,57,14.70
2015,05,21,06,58,14.70
2015,05,21,06,59,14.70
2015,05,21,07,00,14.70
2015,05,21,07,01,14.70
2015,05,21,07,02,14.80
2015,05,21,07,03,14.80
2015,05,21,07,04,14.80
2015,05,21,07,05,14.80
2015,05,21,07,06,14.80
2015,05,21,07,07,14.80
2015,05,21,07,08,14.90
2015,05,21,07,09,14.90
2015,05,21,07,10,14.90
2015,05,21,07,11,15.00
2015,05,21,07,12,15.00
2015,05,21,07,13,15.10
2015,05,21,07,14,15.20
2015,05,21,07,15,15.20
2015,05,21,07,16,15.30
2015,05,21,07,17,15.30
2015,05,21,07,18,15.40
2015,05,21,07,19,15.50
2015,05,21,07,20,15.50
2015,05,21,07,21,15.60
2015,05,21,07,22,15.60
2015,05,21,07,23,15.70
2015,05,21,07,24,15.80
2015,05,21,07,25,15.80
2015,05,21,07,26,15.90
2015,05,21,07,27,15.90
2015,05,21,07,28,16.00
2015,05,21,07,29,16.10
2015,05,21,07,30,16.10
2015,05,21,07,31,16.20
2015,05,21,07,32,16.20
2015,05,21,07,33,16.20
2015,05,21,07,34,16.20
2015,05,21,07,35,16.30
2015,05,21,07,36,16.30
2015,05,21,07,37,16.30
2015,05,21,07,38,16.30
2015,05,21,07,39,16.30
2015,05,21,07,40,16.30
2015,05,21,07,41,16.30
2015,05,21,07,42,16.30
2015,05,21,07,43,16.30
2015,05,21,07,44,16.30
2015,05,21,07,45,16.40
2015,05,21,07,46,16.40
2015,05,21,07,47,16.40
2015,05,21,07,48,16.40
2015,05,21,07,49,16.50
2015,05,21,07,50,16.60
2015,05,21,07,51,16.60
2015,05,21,07,52,16.60
2015,05,21,07,53,16.60
2015,05,21,07,54,16.60
2015,05,21,07,55,16.60
2015,05,21,07,56,16.70
2015,05,21,07,57,16.70
2015,05,21,07,58,16.70
2015,05,21,07,59,16.70
2015,05,21,08,00,16.80
2015,05,21,08,01,16.80
2015,05,21,08,02,16.90
2015,05,21,08,03,16.90
2015,05,21,08,04,17.00
2015,05,21,08,05,17.00
2015,05,21,08,06,17.10
2015,05,21,08,07,17.10
2015,05,21,08,08,17.10
2015,05,21,08,09,17.10
2015,05,21,08,10,17.10
2015,05,21,08,11,17.20
2015,05,21,08,12,17.20
2015,05,21,08,13,17.20
2015,05,21,08,14,17.20
2015,05,21,08,15,17.20
2015,05,21,08,16,17.20
2015,05,21,08,17,17.20
2015,05,21,08,18,17.20
2015,05,21,08,19,17.30
2015,05,21,08,20,17.30
2015,05,21,08,21,17.20
2015,05,21,08,22,17.20
2015,05,21,08,23,17.20
2015,05,21,08,24,17.30
2015,05,21,08,25,17.30
2015,05,21,08,26,17.40
2015,05,21,08,27,17.40
2015,05,21,08,28,17.50
2015,05,21,08,29,17.60
2015,05,21,08,30,17.60
2015,05,21,08,31,17.70
2015,05,21,08,32,17.70
2015,05,21,08,33,17.70
2015,05,21,08,34,17.80
2015,05,21,08,35,17.80
2015,05,21,08,36,17.90
2015,05,21,08,37,18.00
2015,05,21,08,38,18.00
2015,05,21,08,39,18.00
2015,05,21,08,40,18.00
2015,05,21,08,41,18.00
2015,05,21,08,42,18.10
2015,05,21,08,43,18.10
2015,05,21,08,44,18.10
2015,05,21,08,45,18.20
2015,05,21,08,46,18.20
2015,05,21,08,47,18.20
2015,05,21,08,48,18.30
2015,05,21,08,49,18.30
2015,05,21,08,50,18.30
2015,05,21,08,51,18.30
2015,05,21,08,52,18.30
2015,05,21,08,53,18.30
2015,05,21,08,54,18.40
2015,05,21,08,55,18.50
2015,05,21,08,56,18.50
2015,05,21,08,57,18.60
2015,05,21,08,58,18.60
2015,05,21,08,59,18.60
2015,05,21,09,00,18.70
2015,05,21,09,01,18.70
2015,05,21,09,02,18.70
2015,05,21,09,03,18.70
2015,05,21,09,04,18.70
2015,05,21,09,05,18.70
2015,05,21,09,06,18.70
2015,05,21,09,07,18.70
2015,05,21,09,08,18.80
2015,05,21,09,09,18.80
2015,05,21,09,10,18.90
2015,05,21,09,11,18.90
2015,05,21,09,12,18.90
2015,05,21,09,13,18.90
2015,05,21,09,14,18.90
2015,05,21,09,15,18.90
2015,05,21,09,16,18.90
2015,05,21,09,17,18.80
2015,05,21,09,18,18.70
2015,05,21,09,19,18.70
2015,05,21,09,20,18.70
2015,05,21,09,21,18.70
2015,05,21,09,22,18.70
2015,05,21,09,23,18.80
2015,05,21,09,24,18.80
2015,05,21,09,25,18.80
2015,05,21,09,26,18.80
2015,05,21,09,27,18.70
2015,05,21,09,28,18.60
2015,05,21,09,29,18.60
2015,05,21,09,30,18.60
2015,05,21,09,31,18.60
2015,05,21,09,32,18.60
2015,05,21,09,33,18.70
2015,05,21,09,34,18.70
2015,05,21,09,35,18.80
2015,05,21,09,36,18.90
2015,05,21,09,37,18.90
2015,05,21,09,38,19.00
2015,05,21,09,39,19.00
2015,05,21,09,40,19.00
2015,05,21,09,41,18.90
2015,05,21,09,42,18.90
2015,05,21,09,43,18.80
2015,05,21,09,44,18.80
2015,05,21,09,45,18.80
2015,05,21,09,46,18.80
2015,05,21,09,47,18.70
2015,05,21,09,48,18.60
2015,05,21,09,49,18.60
2015,05,21,09,50,18.60
2015,05,21,09,51,18.60
2015,05,21,09,52,18.60
2015,05,21,09,53,18.60
2015,05,21,09,54,18.60
2015,05,21,09,55,18.70
2015,05,21,09,56,18.80
2015,05,21,09,57,18.90
2015,05,21,09,58,19.00
2015,05,21,09,59,19.10
2015,05,21,10,00,19.20
2015,05,21,10,01,19.40
2015,05,21,10,02,19.50
2015,05,21,10,03,19.50
2015,05,21,10,04,19.60
2015,05,21,10,05,19.60
2015,05,21,10,06,19.70
2015,05,21,10,07,19.80
2015,05,21,10,08,19.80
2015,05,21,10,09,19.90
2015,05,21,10,10,19.90
2015,05,21,10,11,20.00
2015,05,21,10,12,20.00
2015,05,21,10,13,20.10
2015,05,21,10,14,20.10
2015,05,21,10,15,20.10
2015,05,21,10,16,20.10
2015,05,21,10,17,20.10
2015,05,21,10,18,20.10
2015,05,21,10,19,20.00
2015,05,21,10,20,20.00
2015,05,21,10,21,19.90
2015,05,21,10,22,19.90
2015,05,21,10,23,19.90
2015,05,21,10,24,20.00
2015,05,21,10,25,20.00
2015,05,21,10,26,20.10
2015,05,21,10,27,20.10
2015,05,21,10,28,20.10
2015,05,21,10,29,20.10
2015,05,21,10,30,20.10
2015,05,21,10,31,20.10
2015,05,21,10,32,20.10
2015,05,21,10,33,20.10
2015,05,21,10,34,20.10
2015,05,21,10,35,20.10
2015,05,21,10,36,20.10
2015,05,21,10,37,20.10
2015,05,21,10,38,20.10
2015,05,21,10,39,20.00
2015,05,21,10,40,20.00
2015,05,21,10,41,20.00
2015,05,21,10,42,20.00
2015,05,21,10,43,20.00
2015,05,21,10,44,20.00
2015,05,21,10,45,20.10
2015,05,21,10,46,20.10
2015,05,21,10,47,20.10
2015,05,21,10,48,20.20
2015,05,21,10,49,20.20
2015,05,21,10,50,20.30
2015,05,21,10,51,20.40
2015,05,21,10,52,20.40
2015,05,21,10,53,20.50
2015,05,21,10,54,20.50
2015,05,21,10,55,20.50
2015,05,21,10,56,20.50
2015,05,21,10,57,20.40
2015,05,21,10,58,20.40
2015,05,21,10,59,20.40
2015,05,21,11,00,20.30
2015,05,21,11,01,20.30
2015,05,21,11,02,20.30
2015,05,21,11,03,20.30
2015,05,21,11,04,20.30
2015,05,21,11,05,20.30
2015,05,21,11,06,20.30
2015,05,21,11,07,20.20
2015,05,21,11,08,20.20
2015,05,21,11,09,20.20
2015,05,21,11,10,20.20
2015,05,21,11,11,20.20
2015,05,21,11,12,20.20
2015,05,21,11,13,20.20
2015,05,21,11,14,20.30
2015,05,21,11,15,20.30
2015,05,21,11,16,20.40
2015,05,21,11,17,20.50
2015,05,21,11,18,20.50
2015,05,21,11,19,20.60
2015,05,21,11,20,20.70
2015,05,21,11,21,20.80
2015,05,21,11,22,20.90
2015,05,21,11,23,20.90
2015,05,21,11,24,21.00
2015,05,21,11,25,21.00
2015,05,21,11,26,21.10
2015,05,21,11,27,21.10
2015,05,21,11,28,21.10
2015,05,21,11,29,21.10
2015,05,21,11,30,21.10
2015,05,21,11,31,21.10
2015,05,21,11,32,21.00
2015,05,21,11,33,21.00
2015,05,21,11,34,20.90
2015,05,21,11,35,20.90
2015,05,21,11,36,20.80
2015,05,21,11,37,20.70
2015,05,21,11,38,20.60
2015,05,21,11,39,20.60
2015,05,21,11,40,20.50
2015,05,21,11,41,20.50
2015,05,21,11,42,20.50
2015,05,21,11,43,20.40
2015,05,21,11,44,20.40
2015,05,21,11,45,20.40
2015,05,21,11,46,20.50
2015,05,21,11,47,20.50
2015,05,21,11,48,20.50
2015,05,21,11,49,20.60
2015,05,21,11,50,20.60
2015,05,21,11,51,20.70
2015,05,21,11,52,20.70
2015,05,21,11,53,20.70
2015,05,21,11,54,20.80
2015,05,21,11,55,20.80
2015,05,21,11,56,20.90
2015,05,21,11,57,20.90
2015,05,21,11,58,20.90
2015,05,21,11,59,20.90
2015,05,21,12,00,20.90
2015,05,21,12,01,20.80
2015,05,21,12,02,20.80
2015,05,21,12,03,20.80
2015,05,21,12,04,20.70
2015,05,21,12,05,20.70
2015,05,21,12,06,20.80
2015,05,21,12,07,20.80
2015,05,21,12,08,20.80
2015,05,21,12,09,20.70
2015,05,21,12,10,20.70
2015,05,21,12,11,20.60
2015,05,21,12,12,20.60
2015,05,21,12,13,20.60
2015,05,21,12,14,20.60
2015,05,21,12,15,20.60
2015,05,21,12,16,20.60
2015,05,21,12,17,20.60
2015,05,21,12,18,20.60
2015,05,21,12,19,20.60
2015,05,21,12,20,20.60
2015,05,21,12,21,20.60
2015,05,21,12,22,20.70
2015,05,21,12,23,20.70
2015,05,21,12,24,20.70
2015,05,21,12,25,20.70
2015,05,21,12,26,20.70
2015,05,21,12,27,20.70
2015,05,21,12,28,20.70
2015,05,21,12,29,20.70
2015,05,21,12,30,20.70
2015,05,21,12,31,20.70
2015,05,21,12,32,20.70
2015,05,21,12,33,20.70
2015,05,21,12,34,20.70
2015,05,21,12,35,20.70
2015,05,21,12,36,20.70
2015,05,21,12,37,20.60
2015,05,21,12,38,20.60
2015,05,21,12,39,20.60
2015,05,21,12,40,20.60
2015,05,21,12,41,20.60
2015,05,21,12,42,20.50
2015,05,21,12,43,20.50
2015,05,21,12,44,20.50
2015,05,21,12,45,20.50
2015,05,21,12,46,20.60
2015,05,21,12,47,20.60
2015,05,21,12,48,20.60
2015,05,21,12,49,20.60
2015,05,21,12,50,20.60
2015,05,21,12,51,20.70
2015,05,21,12,52,20.70
2015,05,21,12,53,20.80
2015,05,21,12,54,20.80
2015,05,21,12,55,20.90
2015,05,21,12,56,21.00
2015,05,21,12,57,21.10
2015,05,21,12,58,21.20
2015,05,21,12,59,21.20
2015,05,21,13,00,21.30
2015,05,21,13,01,21.30
2015,05,21,13,02,21.40
2015,05,21,13,03,21.40
2015,05,21,13,04,21.50
2015,05,21,13,05,21.50
2015,05,21,13,06,21.50
2015,05,21,13,07,21.50
2015,05,21,13,08,21.60
2015,05,21,13,09,21.60
2015,05,21,13,10,21.60
2015,05,21,13,11,21.60
2015,05,21,13,12,21.60
2015,05,21,13,13,21.60
2015,05,21,13,14,21.60
2015,05,21,13,15,21.70
2015,05,21,13,16,21.70
2015,05,21,13,17,21.60
2015,05,21,13,18,21.60
2015,05,21,13,19,21.70
2015,05,21,13,20,21.70
2015,05,21,13,21,21.80
2015,05,21,13,22,21.80
2015,05,21,13,23,21.80
2015,05,21,13,24,21.90
2015,05,21,13,25,22.00
2015,05,21,13,26,22.00
2015,05,21,13,27,22.10
2015,05,21,13,28,22.20
2015,05,21,13,29,22.20
2015,05,21,13,30,22.30
2015,05,21,13,31,22.30
2015,05,21,13,32,22.40
2015,05,21,13,33,22.60
2015,05,21,13,34,22.70
2015,05,21,13,35,22.80
2015,05,21,13,36,22.80
2015,05,21,13,37,22.90
2015,05,21,13,38,22.90
2015,05,21,13,39,23.00
2015,05,21,13,40,23.00
2015,05,21,13,41,23.10
2015,05,21,13,42,23.10
2015,05,21,13,43,23.10
2015,05,21,13,44,23.10
2015,05,21,13,45,23.10
2015,05,21,13,46,23.10
2015,05,21,13,47,23.10
2015,05,21,13,48,23.10
2015,05,21,13,49,23.10
2015,05,21,13,50,23.10
2015,05,21,13,51,23.20
2015,05,21,13,52,23.20
2015,05,21,13,53,23.20
2015,05,21,13,54,23.20
2015,05,21,13,55,23.30
2015,05,21,13,56,23.30
2015,05,21,13,57,23.40
2015,05,21,13,58,23.40
2015,05,21,13,59,23.50
2015,05,21,14,00,23.60
2015,05,21,14,01,23.60
2015,05,21,14,02,23.60
2015,05,21,14,03,23.60
2015,05,21,14,04,23.60
2015,05,21,14,05,23.60
2015,05,21,14,06,23.50
2015,05,21,14,07,23.60
2015,05,21,14,08,23.60
2015,05,21,14,09,23.70
2015,05,21,14,10,23.70
2015,05,21,14,11,23.80
2015,05,21,14,12,23.80
2015,05,21,14,13,23.80
2015,05,21,14,14,23.70
2015,05,21,14,15,23.70
2015,05,21,14,16,23.60
2015,05,21,14,17,23.40
2015,05,21,14,18,23.30
2015,05,21,14,19,23.10
2015,05,21,14,20,23.00
2015,05,21,14,21,22.90
2015,05,21,14,22,22.80
2015,05,21,14,23,22.80
2015,05,21,14,24,22.80
2015,05,21,14,25,22.70
2015,05,21,14,26,22.60
2015,05,21,14,27,22.60
2015,05,21,14,28,22.60
2015,05,21,14,29,22.50
2015,05,21,14,30,22.40
2015,05,21,14,31,22.40
2015,05,21,14,32,22.30
2015,05,21,14,33,22.30
2015,05,21,14,34,22.20
2015,05,21,14,35,22.10
2015,05,21,14,36,22.00
2015,05,21,14,37,21.90
2015,05,21,14,38,21.80
2015,05,21,14,39,21.70
2015,05,21,14,40,21.70
2015,05,21,14,41,21.60
2015,05,21,14,42,21.60
2015,05,21,14,43,21.60
2015,05,21,14,44,21.60
2015,05,21,14,45,21.40
2015,05,21,14,46,21.40
2015,05,21,14,47,21.30
2015,05,21,14,48,21.30
2015,05,21,14,49,21.30
2015,05,21,14,50,21.30
2015,05,21,14,51,21.20
2015,05,21,14,52,21.20
2015,05,21,14,53,21.10
2015,05,21,14,54,21.00
2015,05,21,14,55,20.90
2015,05,21,14,56,20.80
2015,05,21,14,57,20.80
2015,05,21,14,58,20.70
2015,05,21,14,59,20.70
2015,05,21,15,00,20.60
2015,05,21,15,01,20.60
2015,05,21,15,02,20.60
2015,05,21,15,03,20.60
2015,05,21,15,04,20.50
2015,05,21,15,05,20.50
2015,05,21,15,06,20.40
2015,05,21,15,07,20.40
2015,05,21,15,08,20.40
2015,05,21,15,09,20.30
2015,05,21,15,10,20.40
2015,05,21,15,11,20.40
2015,05,21,15,12,20.40
2015,05,21,15,13,20.40
2015,05,21,15,14,20.40
2015,05,21,15,15,20.50
2015,05,21,15,16,20.70
2015,05,21,15,17,20.80
2015,05,21,15,18,21.00
2015,05,21,15,19,21.20
2015,05,21,15,20,21.40
2015,05,21,15,21,21.60
2015,05,21,15,22,21.70
2015,05,21,15,23,21.90
2015,05,21,15,24,22.00
2015,05,21,15,25,22.20
2015,05,21,15,26,22.30
2015,05,21,15,27,22.40
2015,05,21,15,28,22.60
2015,05,21,15,29,22.60
2015,05,21,15,30,22.60
2015,05,21,15,31,22.60
2015,05,21,15,32,22.50
2015,05,21,15,33,22.50
2015,05,21,15,34,22.50
2015,05,21,15,35,22.60
2015,05,21,15,36,22.60
2015,05,21,15,37,22.70
2015,05,21,15,38,22.70
2015,05,21,15,39,22.80
2015,05,21,15,40,22.90
2015,05,21,15,41,23.00
2015,05,21,15,42,23.00
2015,05,21,15,43,23.10
2015,05,21,15,44,23.20
2015,05,21,15,45,23.30
2015,05,21,15,46,23.30
2015,05,21,15,47,23.30
2015,05,21,15,48,23.30
2015,05,21,15,49,23.30
2015,05,21,15,50,23.30
2015,05,21,15,51,23.40
2015,05,21,15,52,23.40
2015,05,21,15,53,23.40
2015,05,21,15,54,23.40
2015,05,21,15,55,23.40
2015,05,21,15,56,23.30
2015,05,21,15,57,23.30
2015,05,21,15,58,23.20
2015,05,21,15,59,23.10
2015,05,21,16,00,23.10
2015,05,21,16,01,23.10
2015,05,21,16,02,23.00
2015,05,21,16,03,23.00
2015,05,21,16,04,22.90
2015,05,21,16,05,22.90
2015,05,21,16,06,22.80
2015,05,21,16,07,22.80
2015,05,21,16,08,22.80
2015,05,21,16,09,22.80
2015,05,21,16,10,22.80
2015,05,21,16,11,22.80
2015,05,21,16,12,22.80
2015,05,21,16,13,22.80
2015,05,21,16,14,22.80
2015,05,21,16,15,22.80
2015,05,21,16,16,22.80
2015,05,21,16,17,22.90
2015,05,21,16,18,22.90
2015,05,21,16,19,23.00
2015,05,21,16,20,23.10
2015,05,21,16,21,23.10
2015,05,21,16,22,23.10
2015,05,21,16,23,23.10
2015,05,21,16,24,23.20
2015,05,21,16,25,23.20
2015,05,21,16,26,23.20
2015,05,21,16,27,23.20
2015,05,21,16,28,23.20
2015,05,21,16,29,23.20
2015,05,21,16,30,23.10
2015,05,21,16,31,23.10
2015,05,21,16,32,23.00
2015,05,21,16,33,22.90
2015,05,21,16,34,22.80
2015,05,21,16,35,22.80
2015,05,21,16,36,22.70
2015,05,21,16,37,22.60
2015,05,21,16,38,22.60
2015,05,21,16,39,22.50
2015,05,21,16,40,22.40
2015,05,21,16,41,22.40
2015,05,21,16,42,22.40
2015,05,21,16,43,22.30
2015,05,21,16,44,22.20
2015,05,21,16,45,22.20
2015,05,21,16,46,22.10
2015,05,21,16,47,22.10
2015,05,21,16,48,22.10
2015,05,21,16,49,22.00
2015,05,21,16,50,22.00
2015,05,21,16,51,21.90
2015,05,21,16,52,21.90
2015,05,21,16,53,21.90
2015,05,21,16,54,21.80
2015,05,21,16,55,21.80
2015,05,21,16,56,21.70
2015,05,21,16,57,21.70
2015,05,21,16,58,21.60
2015,05,21,16,59,21.50
2015,05,21,17,00,21.40
2015,05,21,17,01,21.40
2015,05,21,17,02,21.30
2015,05,21,17,03,21.30
2015,05,21,17,04,21.20
2015,05,21,17,05,21.20
2015,05,21,17,06,21.20
2015,05,21,17,07,21.20
2015,05,21,17,08,21.20
2015,05,21,17,09,21.10
2015,05,21,17,10,21.10
2015,05,21,17,11,21.10
2015,05,21,17,12,21.00
2015,05,21,17,13,21.00
2015,05,21,17,14,21.00
2015,05,21,17,15,21.00
2015,05,21,17,16,20.90
2015,05,21,17,17,20.90
2015,05,21,17,18,20.90
2015,05,21,17,19,20.80